Location: The Saddle
(36.8333°N, 80.3417°W)
Time: 18:30:58
(UTC-05:00)

A-11 Canister half - Pass Details

Date: 18 December 2023
Orbit: 1512 x 1687 km, 47.2° (Epoch: 26 February)

Event Time Altitude Azimuth Distance (km) Brightness Sun altitude
Rises 04:07:09 0° 301° (WNW) 4,812 - -39.4°
Reaches altitude 10° 04:10:20 10° 296° (WNW) 3,847 - -38.7°
Maximum altitude 04:19:40 50° 225° (SW) 2,031 - -36.9°
Exits shadow 04:21:44 44° 193° (SSW) 2,164 9.6 -36.5°
Drops below altitude 10° 04:29:15 10° 154° (SSE) 3,934 11.4 -35.0°
Sets 04:32:34 0° 149° (SSE) 4,927 12.1 -34.3°
